Location: Belloy
(49.8829°N, 2.8552°E)
Time: 21:07:29
(UTC+00:00)

Daily predictions for brighter satellites

Satellite Brightness Start Highest point End
(mag) Time Altitude Azimuth Time Altitude Azimuth Time Altitude Azimuth
Cosmos 1844 Rocket 3.4 17:04:38 10° NNW 17:09:40 33° NE 17:14:39 10° ESE
NOSS 3-1 (A) 4.4 17:07:16 10° SSE 17:11:12 21° ESE 17:15:34 10° ENE
CZ-2D R/B 3.5 17:07:49 10° SE 17:11:32 48° ENE 17:15:17 10° N
AQUARIUS 4.2 17:07:26 10° SSE 17:11:55 84° ENE 17:16:27 10° NNW
H-2A R/B 2.4 17:06:56 10° SE 17:12:09 50° ENE 17:17:25 10° N
X-37B 2.5 17:09:39 10° WSW 17:12:49 31° SSW 17:15:59 10° SE
Cosmos 371 Rocket 3.8 17:08:51 10° S 17:13:22 39° ESE 17:17:55 10° NE
Cosmos 1328 4.0 17:12:15 10° N 17:16:13 51° ENE 17:20:10 10° SSE
Cosmos 1908 3.2 17:12:22 10° S 17:16:14 88° E 17:20:06 10° N
Cosmos 1125 Rocket 4.2 17:11:16 10° SW 17:16:26 57° WNW 17:21:36 10° NNE
CENTAUR R/B 4.1 17:12:03 10° WNW 17:18:07 29° N 17:25:03 10° ENE
USA 267 3.4 17:14:52 10° SE 17:21:26 82° SSW 17:28:01 10° WNW
Cosmos 1269 Rocket 4.3 17:17:18 10° NNW 17:22:36 75° WSW 17:27:52 10° SSE
Tiangong 3.3 17:22:23 10° SW 17:24:42 18° S 17:27:00 10° SE
SKYMED 2 4.3 17:21:34 10° NNE 17:25:30 32° E 17:29:24 10° SSE
BREEZE-M R/B 2.6 17:24:53 10° W 17:28:44 75° S 17:32:42 10° ESE
Cosmos 1455 Rocket 3.0 17:25:02 10° S 17:29:26 75° E 17:33:55 10° NNE
H-2A R/B 4.0 17:30:42 10° ESE 17:30:42 10° ESE 17:30:50 10° ESE
Landsat 5 4.3 17:26:14 10° NNE 17:30:16 33° E 17:34:20 10° SSE
NOSS 2-3 (D) 4.1 17:26:59 10° S 17:30:44 37° ESE 17:35:02 10° NE
YAOGAN 1 3.6 17:27:38 10° ESE 17:31:10 25° ENE 17:34:43 10° N
Cosmos 1953 2.6 17:27:43 10° SSW 17:31:46 73° WNW 17:35:51 10° N
Cosmos 2278 4.0 17:28:11 10° SW 17:33:50 71° WNW 17:39:34 10° NNE
NOSS 3-1 (C) 3.4 17:29:15 10° SSW 17:34:21 51° ESE 17:40:21 10° NE
ATLAS 5 CENTAUR R/B 2.1 17:31:03 10° WSW 17:34:55 53° NW 17:39:24 10° NE
Cosmos 2278 Rocket 3.9 17:32:31 10° N 17:35:48 15° NNE 17:38:37 11° ENE
Lacrosse 4 Rocket 1.4 17:32:19 10° NNW 17:36:39 76° ENE 17:41:02 10° SE
Cosmos 44 4.5 17:32:10 10° S 17:36:44 28° ESE 17:40:54 11° ENE
Cosmos 407 Rocket 4.5 17:34:42 10° N 17:39:19 28° NE 17:43:30 12° ESE
Cosmos 1825 3.7 17:38:47 10° NNE 17:41:11 16° ENE 17:41:33 16° ENE
Cosmos 1300 2.7 17:39:08 10° S 17:42:52 59° E 17:46:38 10° NNE
Cosmos 2251 Rocket 3.6 17:37:55 10° NNW 17:43:04 52° ENE 17:48:11 10° SE
NOSS 2-3 (C) 3.8 17:39:15 10° SSW 17:43:11 50° SE 17:47:34 11° NE
Cosmos 1544 Rocket 3.6 17:39:37 10° S 17:44:01 63° E 17:48:27 10° NNE
SL-16 R/B 2.2 17:39:54 10° SSW 17:45:28 61° ESE 17:51:05 10° NE
Cosmos 1821 Rocket 4.5 17:42:40 10° SSW 17:49:01 67° WNW 17:55:20 10° N
SL-19 R/B 4.2 17:46:07 10° NNE 17:51:50 75° ESE 17:57:23 10° SSW
Cosmos 2322 Rocket 2.2 17:51:28 10° S 17:56:57 57° ESE 18:02:28 10° NE
Cosmos 1934 Rocket 3.9 17:51:58 10° S 17:58:02 84° E 18:04:08 10° N
CZ-4C R/B 3.1 17:55:18 10° NNE 17:58:31 43° E 18:01:38 10° S
deb Chang Zheng 4 4.1 17:55:45 10° S 17:59:54 59° WSW 18:04:06 10° NNW
Iridium 4 Rocket 3.4 17:56:04 10° N 18:00:46 86° W 18:05:53 10° S
Cosmos 614 Rocket 3.8 17:57:21 10° NNW 18:02:28 77° ENE 18:07:34 10° SSE
Cosmos 2219 Rocket 3.7 17:59:05 10° SE 18:01:22 16° ESE 18:01:22 16° ESE
Okean O Rocket 1.6 17:58:42 10° SSE 18:03:03 82° WSW 18:07:27 10° NNW
Cosmos 304 Rocket 3.7 17:58:29 10° S 18:03:12 63° ESE 18:07:59 10° NNE
Cosmos 1844 3.7 17:59:40 10° NNW 18:05:27 63° ENE 18:11:08 10° SE
Cosmos 2360 Rocket 2.5 18:00:40 10° S 18:05:57 42° ESE 18:11:16 10° NE
Meteor 1-4 Rocket 2.3 18:03:43 10° S 18:07:07 60° E 18:10:32 10° NNE
CZ-4 R/B 1.5 18:03:13 10° SE 18:07:09 50° ENE 18:11:10 10° N
Cosmos 1602 Rocket 3.4 18:02:58 10° N 18:07:20 74° ENE 18:11:39 10° SSE
Cosmos 1932 4.4 18:01:28 10° NW 18:07:44 79° NE 18:13:52 11° SE
ARGOS 3.1 18:04:28 10° SSE 18:09:54 89° ENE 18:15:22 10° NNW
COSMO-SKYMED 1 2.5 18:09:22 10° NNE 18:13:44 87° WNW 18:18:05 10° SSW
Cosmos 2333 Rocket 3.0 18:11:56 10° SSE 18:16:37 27° ESE 18:17:13 27° E
CZ-4B R/B 4.1 18:15:52 10° S 18:21:24 53° W 18:26:57 10° NNW
In-Cosmos 22 Rocket 4.0 18:17:11 10° N 18:22:33 85° ENE 18:27:52 10° SSE
SL-8 R/B 3.7 18:18:39 10° W 18:23:26 77° S 18:25:25 35° E
Cosmos 1190 Rocket 4.4 18:19:34 10° NNW 18:24:32 42° ENE 18:26:12 32° E
Spot 2 4.1 18:20:48 10° SSE 18:25:01 84° WSW 18:29:30 10° NNW
IRS-1C Rocket 4.1 18:20:12 10° SSE 18:25:21 59° ENE 18:30:33 10° N
Cosmos 332 Rocket 3.8 18:22:42 10° SSW 18:27:36 81° WNW 18:32:31 10° NNE
Feng Yun 1-1 Rocket 4.3 18:22:17 10° SSE 18:27:54 84° WSW 18:33:44 10° NNW
Cosmos 1943 Rocket 4.2 18:25:52 10° N 18:27:59 12° NNE 18:29:08 11° NE
CZ-2C R/B 2.7 18:22:24 10° NNE 18:28:02 84° WNW 18:33:32 10° SSW
Okean-O 2.8 18:26:34 32° ESE 18:28:12 49° ENE 18:32:29 10° N
USA 215 3.4 18:24:03 19° NE 18:28:58 70° NNW 18:35:28 10° WSW
Cosmos 1825 Rocket 3.5 18:25:20 10° N 18:29:36 54° ENE 18:31:17 33° SE
Cosmos 1980 Rocket 4.1 18:25:46 10° W 18:30:32 27° NW 18:35:23 10° NNE
CSL-04 Debris 4.3 18:28:30 24° SE 18:31:35 51° ENE 18:36:51 10° N
H-2A R/B 2.6 18:28:57 10° S 18:33:11 74° WSW 18:37:18 10° NNW
NOSS 2-3 (E) 3.8 18:29:20 10° SW 18:33:27 68° NW 18:36:32 22° NE
Cosmos 1892 2.7 18:30:27 10° NNW 18:34:14 76° W 18:37:58 10° S
Cosmos 1758 Rocket 3.5 18:32:40 10° NNW 18:37:01 84° W 18:41:21 10° S
Cosmos 2228 3.0 18:32:52 10° S 18:37:10 59° E 18:41:31 10° NNE
Cosmos 2322 4.3 18:33:21 10° S 18:38:00 35° ESE 18:38:00 35° ESE
USA 229 DEB 3.5 18:32:17 10° SSW 18:38:40 76° SE 18:43:37 20° NE
USA 229 3.5 18:32:24 10° SSW 18:38:47 76° SE 18:43:41 20° NE
Cosmos 2344 4.4 18:30:04 10° NW 18:39:05 77° SW 18:51:42 10° SSE
Cosmos 1408 2.7 18:37:18 10° NNW 18:40:52 69° W 18:43:38 16° S
CSL-04 Rocket 3.8 18:39:01 30° SE 18:41:39 57° ENE 18:47:06 10° N
Cosmos 1953 Rocket 3.7 18:39:05 10° N 18:43:15 50° ENE 18:43:15 50° ENE
Cosmos 1459 Rocket 4.0 18:42:04 10° SSE 18:47:58 50° E 18:53:50 10° NNE
Cosmos 220 Rocket 4.3 18:43:35 10° SSW 18:48:00 69° WNW 18:51:30 16° NNE
X-37B 3.5 18:48:23 10° WSW 18:50:05 13° SSW 18:51:10 12° S
SL-08 RB Rocket 4.4 18:46:11 10° S 18:50:39 54° W 18:55:13 10° NNW
H-2A R/B 4.2 18:47:07 10° SSW 18:51:48 29° W 18:56:31 10° NNW
HJ-1C 3.9 18:52:27 55° WSW 18:52:40 56° W 18:55:55 10° NNW
Cosmos 2100 Rocket 4.0 18:47:35 10° S 18:53:47 60° E 19:00:03 10° NNE
Cosmos 1844 Rocket 3.3 18:48:24 10° NW 18:53:49 53° WSW 18:59:13 10° S
Meteor 2-10 Rocket 4.0 18:48:24 10° SSW 18:53:52 64° WNW 18:59:08 10° N
ATLAS 3B R/B 4.2 18:48:26 10° WNW 18:54:10 28° NNW 18:58:46 15° NE
Cosmos 2369 Rocket 4.4 18:55:22 10° N 18:56:28 11° NNE 18:57:05 10° NNE
Tiangong 4.0 18:59:28 10° SW 19:00:17 12° SSW 19:00:17 12° SSW
NOSS 3-1 (A) 3.3 18:55:43 10° SW 19:01:08 80° NW 19:04:32 29° NE
DMSP B5D2-2 3.9 18:57:00 10° NNE 19:02:17 87° ESE 19:07:31 10° SSW
Cosmos 2058 4.2 18:59:24 10° N 19:01:39 30° N 19:01:39 30° N
Cosmos 2173 Rocket 3.9 18:58:08 10° S 19:04:16 66° E 19:10:31 10° NNE
Cosmos 1802 Rocket 4.0 19:05:58 53° ENE 19:05:58 53° ENE 19:11:31 10° NNE
H-2A R/B 2.9 19:07:49 38° SSW 19:07:49 38° SSW 19:10:27 10° SSW
BREEZE-M DEB (TANK) 4.1 19:02:18 10° W 19:06:16 33° SW 19:06:16 33° SW
YAOGAN 1 3.8 19:02:59 10° S 19:07:05 41° W 19:11:12 10° NNW
IRS-P2 Rocket 4.5 19:06:16 42° SSE 19:08:06 88° WSW 19:13:21 10° NNW
CENTAUR R/B 3.7 19:03:41 10° NW 19:10:53 42° NNE 19:12:59 37° ENE
Lacrosse 4 Rocket 4.4 19:12:13 10° WNW 19:14:47 15° WSW 19:17:21 10° SW
Cosmos 1825 3.2 19:13:17 10° NNW 19:16:21 44° WNW 19:16:21 44° WNW
Cosmos 44 3.9 19:12:20 10° SW 19:17:42 63° NW 19:19:21 42° NNE
NOSS 3-2 (A) 4.3 19:11:49 10° NW 19:18:39 47° NNE 19:19:55 44° ENE
Cosmos 1140 Rocket 3.9 19:14:27 10° NNW 19:19:34 59° WSW 19:21:15 40° SSW
ATLAS 5 CENTAUR R/B 3.8 19:17:25 10° WNW 19:20:35 19° NNW 19:21:54 17° N
COSMOS 2428 4.5 19:15:29 10° S 19:16:52 18° S 19:16:52 18° S
Cosmos 2278 Rocket 2.6 19:15:45 10° NNW 19:20:29 47° NNE 19:20:29 47° NNE
Cosmos 407 Rocket 4.1 19:16:25 10° NNW 19:21:38 55° WSW 19:23:45 34° SSW
ATLAS 5 CENTAUR R/B 4.3 19:05:46 10° W 19:23:14 40° NNW 19:26:02 27° NNE
NOSS 3-1 (C) 4.3 19:19:59 10° WSW 19:25:20 44° NNW 19:28:48 24° NNE
Cosmos 2333 4.1 19:21:34 10° SSW 19:27:14 86° WNW 19:27:51 72° NNE
USA 238 DEB 4.4 19:22:32 10° NW 19:29:11 41° NNE 19:29:49 40° NE
USA 238 4.4 19:22:38 10° NW 19:29:16 41° NNE 19:29:54 40° NE
SL-16 R/B 3.9 19:25:01 10° WSW 19:29:58 30° NW 19:34:59 10° NNE
Cosmos 676 Rocket 4.2 19:26:03 10° NNW 19:30:25 62° NNW 19:30:25 62° NNW
Tsikada Rocket 4.3 19:25:48 10° N 19:30:42 52° NNE 19:30:42 52° NNE
Cosmos 1954 Rocket 4.2 19:28:43 10° NNW 19:33:11 65° NNW 19:33:11 65° NNW
Cosmos 2322 Rocket 3.8 19:36:22 10° WSW 19:41:20 31° NW 19:46:08 11° NNE
CZ-4 R/B 4.1 19:39:35 10° SW 19:42:26 18° W 19:45:19 10° NW
Cosmos 2219 Rocket 3.3 19:40:13 10° SSW 19:43:11 33° SSW 19:43:11 33° SSW
Cosmos 2360 Rocket 3.4 19:44:42 10° WSW 19:50:00 40° NW 19:53:15 21° N
Cosmos 2333 Rocket 2.9 19:54:54 10° SW 19:59:19 49° WSW 19:59:19 49° WSW
USA 215 3.8 20:11:24 48° N 20:11:33 48° N 20:17:46 10° WNW
Cosmos 1943 Rocket 4.1 20:08:23 10° NNW 20:10:39 22° N 20:10:39 22° N
ATLAS 3B R/B 4.2 20:41:06 10° NW 20:46:00 28° N 20:46:00 28° N
CENTAUR R/B 3.7 20:54:26 10° NW 21:00:09 53° NW 21:00:09 53° NW
Cosmos 2278 Rocket 4.4 21:00:13 10° NW 21:02:19 20° WNW 21:02:19 20° WNW
